< < Back
Terminal Aerodrome Forecast


Current Version              Previous Versions:   1  2  3  4  5  6  7  8  9  

Terminal Aerodrome Forecast

107
FTUS42 KCAE 272350
TAFAGS
TAF
KAGS 272350Z 2800/2824 22008KT P6SM SCT060
     FM280300 VRB05KT P6SM SKC
     FM281300 25007KT P6SM FEW250
     FM281800 25010G15KT P6SM SCT060=

Latest METAR

915
SAUS70 KWBC 280200 RRE
MTRAGS
METAR KAGS 280153Z 22004KT 10SM CLR 29/21 A2996 RMK AO2 SLP144
T02940206


USA.gov is the U.S. government's official web portal to all federal, state and local government web resources and services.